DL9GRB-13 Weather Reports


time (UTC)temp
C
wind
direction
speed
KPH
gust
KPH
rain 1hr
cm
rain 24hr
cm
rain mn
cm
humidity
%
barometer
mb
20260506150108 12 24 17.7 45.1 0.00 0.00 0.00 73 1008.1
20260506145808 12 333 27.4 32.2 0.00 0.00 0.00 70 1008.4
20260506145508 12 50 9.7 35.4 0.00 0.00 0.00 70 1008.3
20260506145208 12 358 29.0 43.5 0.00 0.00 0.00 70 1008.2
20260506144908 12 111 27.4 29.0 0.00 0.00 0.00 71 1008.1
20260506144608 12 2 12.9 32.2 0.00 0.00 0.00 72 1008.0
20260506144308 12 353 33.8 33.8 0.00 0.00 0.00 71 1007.9
20260506144008 12 5 24.1 30.6 0.00 0.00 0.00 71 1008.1
20260506143708 12 65 27.4 38.6 0.00 0.00 0.00 71 1008.1
20260506143408 12 83 11.3 32.2 0.00 0.00 0.00 71 1008.0
20260506143108 12 319 8.0 30.6 0.00 0.00 0.00 71 1008.0
20260506142808 12 112 11.3 27.4 0.00 0.00 0.00 72 1008.2
20260506142508 12 37 25.7 43.5 0.00 0.00 0.00 71 1008.3
20260506142208 12 33 19.3 35.4 0.00 0.00 0.00 72 1008.0
20260506141908 12 49 9.7 37.0 0.00 0.00 0.00 72 1008.1
20260506141608 12 337 19.3 43.5 0.00 0.00 0.00 71 1008.1
20260506141308 12 99 24.1 32.2 0.00 0.00 0.00 71 1008.0
20260506141008 12 215 14.5 40.2 0.00 0.00 0.00 70 1008.0
20260506140708 12 353 14.5 56.3 0.00 0.00 0.00 71 1007.9
20260506140408 12 43 9.7 33.8 0.00 0.00 0.00 70 1008.1
20260506140108 12 21 12.9 29.0 0.00 0.00 0.00 70 1008.1
20260506135808 12 29 14.5 29.0 0.00 0.00 0.00 70 1008.1
20260506135508 12 95 17.7 30.6 0.00 0.00 0.00 70 1008.1
20260506135208 12 12 9.7 29.0 0.00 0.00 0.00 70 1008.1
20260506134908 12 81 29.0 40.2 0.00 0.00 0.00 70 1008.1
20260506134608 12 78 16.1 27.4 0.00 0.00 0.00 70 1008.2
20260506134308 12 72 16.1 46.7 0.00 0.00 0.00 69 1007.9
20260506134008 12 100 0.0 40.2 0.00 0.00 0.00 69 1008.0
20260506133708 12 83 16.1 43.5 0.00 0.00 0.00 69 1007.9
20260506133408 12 108 12.9 43.5 0.00 0.00 0.00 70 1008.0
20260506133108 12 39 17.7 30.6 0.00 0.00 0.00 70 1007.9
20260506132808 12 3 20.9 45.1 0.00 0.00 0.00 69 1008.2
20260506132508 12 75 17.7 25.7 0.00 0.00 0.00 70 1007.9
20260506132208 12 30 6.4 22.5 0.00 0.00 0.00 70 1008.0
20260506131908 12 97 9.7 43.5 0.00 0.00 0.00 71 1007.9
20260506131608 12 61 11.3 64.4 0.00 0.00 0.00 70 1008.0
20260506131308 12 75 16.1 33.8 0.00 0.00 0.00 71 1008.1
20260506131008 12 31 32.2 33.8 0.00 0.00 0.00 71 1008.2
20260506130708 13 72 8.0 54.7 0.00 0.00 0.00 70 1007.9
20260506130408 13 332 19.3 43.5 0.00 0.00 0.00 71 1008.1
20260506130108 12 34 14.5 35.4 0.00 0.00 0.00 71 1008.0
20260506125808 13 82 24.1 32.2 0.00 0.00 0.00 71 1007.9
20260506125508 13 355 9.7 33.8 0.00 0.00 0.00 72 1008.0
20260506125208 13 62 24.1 37.0 0.00 0.00 0.00 70 1007.8
20260506124908 13 295 14.5 37.0 0.00 0.00 0.00 70 1008.0
20260506124608 13 74 11.3 33.8 0.00 0.00 0.00 71 1007.9
20260506124308 13 60 9.7 29.0 0.00 0.00 0.00 71 1007.8
20260506124008 13 102 25.7 30.6 0.00 0.00 0.00 72 1008.0
20260506123708 12 107 25.7 32.2 0.00 0.00 0.00 73 1007.9
20260506123408 12 15 12.9 53.1 0.00 0.00 0.00 73 1007.8
20260506123108 12 84 17.7 43.5 0.00 0.00 0.00 72 1007.8
20260506122808 12 109 17.7 24.1 0.00 0.00 0.00 71 1007.8
20260506122508 12 30 22.5 49.9 0.00 0.00 0.00 69 1007.8
20260506122208 12 59 16.1 40.2 0.00 0.00 0.00 69 1007.7
20260506121908 13 3 9.7 37.0 0.00 0.00 0.00 69 1007.8
20260506121608 12 127 8.0 40.2 0.00 0.00 0.00 71 1007.7
20260506121308 12 69 27.4 30.6 0.00 0.00 0.00 73 1007.4
20260506121008 12 321 29.0 30.6 0.00 0.00 0.00 72 1007.5
20260506120708 12 327 14.5 30.6 0.00 0.00 0.00 72 1007.4
20260506120408 12 341 30.6 45.1 0.00 0.00 0.00 72 1007.5
20260506120108 12 41 17.7 56.3 0.00 0.00 0.00 71 1007.5
20260506115808 12 346 17.7 49.9 0.00 0.00 0.00 71 1007.5
20260506115508 12 84 35.4 69.2 0.00 0.00 0.00 71 1007.6
20260506115208 12 327 11.3 49.9 0.00 0.00 0.00 72 1007.4
20260506114908 12 119 0.0 49.9 0.00 0.00 0.00 71 1007.5
20260506114608 13 84 14.5 37.0 0.00 0.00 0.00 70 1007.4
20260506114308 12 297 14.5 27.4 0.00 0.00 0.00 71 1007.5
20260506114008 12 112 8.0 20.9 0.00 0.00 0.00 72 1007.3
20260506113708 12 350 19.3 41.8 0.00 0.00 0.00 70 1007.5
20260506113408 12 82 12.9 43.5 0.00 0.00 0.00 71 1007.4
20260506113108 13 63 24.1 24.1 0.00 0.00 0.00 70 1007.6
20260506112808 12 89 0.0 30.6 0.00 0.00 0.00 71 1007.4
20260506112508 12 170 19.3 37.0 0.00 0.00 0.00 70 1007.4
20260506112208 13 2 25.7 41.8 0.00 0.00 0.00 70 1007.6
20260506111908 12 93 27.4 32.2 0.00 0.00 0.00 70 1007.4
20260506111608 12 92 19.3 25.7 0.00 0.00 0.00 70 1007.5
20260506111308 12 100 8.0 27.4 0.00 0.00 0.00 70 1007.3
20260506111008 12 62 12.9 35.4 0.00 0.00 0.00 70 1007.3
20260506110708 12 81 0.0 37.0 0.00 0.00 0.00 69 1007.1
20260506110408 12 29 11.3 35.4 0.00 0.00 0.00 69 1007.3
20260506110108 12 108 29.0 35.4 0.00 0.00 0.00 69 1007.4
20260506105808 12 101 6.4 41.8 0.00 0.00 0.00 70 1007.4
20260506105508 12 101 12.9 30.6 0.00 0.00 0.00 69 1007.3
20260506105208 12 88 14.5 25.7 0.00 0.00 0.00 69 1007.5
20260506104908 12 65 17.7 37.0 0.00 0.00 0.00 71 1007.7
20260506104608 12 347 14.5 24.1 0.00 0.00 0.00 71 1007.4
20260506104308 12 105 25.7 32.2 0.00 0.00 0.00 71 1007.3
20260506104008 12 97 27.4 46.7 0.00 0.00 0.00 70 1007.5
20260506103708 12 103 24.1 24.1 0.00 0.00 0.00 71 1007.3
20260506103408 12 89 32.2 32.2 0.00 0.00 0.00 70 1007.6
20260506103108 12 8 24.1 24.1 0.00 0.00 0.00 71 1007.5
20260506102808 12 83 19.3 32.2 0.00 0.00 0.00 70 1007.5
20260506102508 12 3 19.3 24.1 0.00 0.00 0.00 70 1007.4
20260506102208 12 19 14.5 30.6 0.00 0.00 0.00 70 1007.4
20260506101908 11 120 16.1 24.1 0.00 0.00 0.00 71 1007.5
20260506101608 11 119 22.5 56.3 0.00 0.00 0.00 71 1007.5
20260506101308 11 20 19.3 22.5 0.00 0.00 0.00 71 1007.5
20260506101008 11 37 19.3 32.2 0.00 0.00 0.00 71 1007.5
20260506100708 11 67 16.1 27.4 0.00 0.00 0.00 69 1007.5
20260506100408 11 70 9.7 25.7 0.00 0.00 0.00 69 1007.5
20260506100108 11 80 20.9 29.0 0.00 0.00 0.00 70 1007.5
20260506095808 11 4 14.5 35.4 0.00 0.00 0.00 69 1007.3
20260506095508 11 123 8.0 22.5 0.00 0.00 0.00 70 1007.5
20260506095208 11 77 17.7 35.4 0.00 0.00 0.00 70 1007.5
20260506094908 11 79 25.7 29.0 0.00 0.00 0.00 70 1007.3
20260506094608 11 93 27.4 56.3 0.00 0.00 0.00 70 1007.6
20260506094308 11 76 11.3 20.9 0.00 0.00 0.00 70 1007.5
20260506094008 11 75 43.5 62.8 0.00 0.00 0.00 70 1007.4
20260506093708 11 110 25.7 51.5 0.00 0.00 0.00 70 1007.6
20260506093408 11 78 20.9 30.6 0.00 0.00 0.00 69 1007.4
20260506093108 11 117 0.0 30.6 0.00 0.00 0.00 70 1007.2
20260506092808 11 173 0.0 49.9 0.00 0.00 0.00 69 1007.4
20260506092508 11 106 40.2 43.5 0.00 0.00 0.00 69 1007.4
20260506092208 11 343 17.7 30.6 0.00 0.00 0.00 69 1007.2
20260506091908 11 16 22.5 53.1 0.00 0.00 0.00 69 1007.4
20260506091608 11 106 17.7 45.1 0.00 0.00 0.00 69 1007.6
20260506091308 11 82 24.1 37.0 0.00 0.00 0.00 68 1007.3
20260506091008 10 98 0.0 16.1 0.00 0.00 0.00 70 1007.3
20260506090708 10 81 8.0 25.7 0.00 0.00 0.00 70 1007.5
20260506090408 10 301 19.3 22.5 0.00 0.00 0.00 70 1007.3
20260506090108 10 13 14.5 27.4 0.00 0.00 0.00 70 1007.5
20260506085808 10 14 24.1 32.2 0.00 0.00 0.00 69 1007.6
20260506085508 10 36 35.4 43.5 0.00 0.00 0.00 68 1007.5
20260506085208 10 356 22.5 30.6 0.00 0.00 0.00 69 1007.5
20260506084908 10 101 27.4 35.4 0.00 0.00 0.00 69 1007.5
20260506084608 10 324 25.7 29.0 0.00 0.00 0.00 69 1007.5
20260506084308 10 21 14.5 49.9 0.00 0.00 0.00 69 1007.4
20260506084008 10 4 25.7 32.2 0.00 0.00 0.00 69 1007.4
20260506083708 10 78 22.5 32.2 0.00 0.00 0.00 71 1007.2
20260506083408 10 293 17.7 43.5 0.00 0.00 0.00 71 1007.2
20260506083108 10 104 19.3 35.4 0.00 0.00 0.00 71 1007.4
20260506082808 10 94 29.0 29.0 0.00 0.00 0.00 71 1007.4
20260506082508 10 60 9.7 32.2 0.00 0.00 0.00 71 1007.4
20260506082208 10 37 24.1 37.0 0.00 0.00 0.00 71 1007.4
20260506081908 10 33 22.5 35.4 0.00 0.00 0.00 71 1007.4
20260506081608 10 74 16.1 43.5 0.00 0.00 0.00 71 1007.3
20260506081308 10 97 33.8 35.4 0.00 0.00 0.00 70 1007.4
20260506081008 10 16 20.9 24.1 0.00 0.00 0.00 71 1007.3
20260506080708 10 353 12.9 38.6 0.00 0.00 0.00 71 1007.1
20260506080408 10 45 17.7 38.6 0.00 0.00 0.00 70 1007.3
20260506080108 10 7 29.0 30.6 0.00 0.00 0.00 70 1007.3
20260506073408 10 49 12.9 25.7 0.00 0.00 0.00 68 1007.3
20260506073108 10 4 17.7 33.8 0.00 0.00 0.00 67 1007.2
20260506072808 10 88 17.7 24.1 0.00 0.00 0.00 68 1007.2
20260506072508 10 27 11.3 32.2 0.00 0.00 0.00 67 1007.5
20260506072208 10 297 25.7 25.7 0.00 0.00 0.00 67 1007.4
20260506071908 10 298 0.0 19.3 0.00 0.00 0.00 67 1007.2
20260506071608 10 71 12.9 17.7 0.00 0.00 0.00 67 1007.2
20260506071308 10 357 17.7 38.6 0.00 0.00 0.00 67 1007.1
20260506071008 10 339 17.7 32.2 0.00 0.00 0.00 67 1007.3
20260506070708 10 3 16.1 43.5 0.00 0.00 0.00 67 1007.1
20260506070408 10 107 11.3 41.8 0.00 0.00 0.00 67 1007.2
20260506070108 10 283 17.7 27.4 0.00 0.00 0.00 67 1007.4
20260506062508 10 91 29.0 33.8 0.00 0.00 0.00 68 1007.1
20260506062208 10 39 9.7 19.3 0.00 0.00 0.00 68 1007.0
20260506061908 10 82 9.7 37.0 0.00 0.00 0.00 68 1007.1
20260506061608 9 34 14.5 30.6 0.00 0.00 0.00 67 1007.1
20260506061308 9 65 6.4 32.2 0.00 0.00 0.00 67 1007.2
20260506061008 9 60 17.7 17.7 0.00 0.00 0.00 67 1007.3
20260506060708 9 87 14.5 30.6 0.00 0.00 0.00 67 1007.2
20260506060408 9 59 12.9 22.5 0.00 0.00 0.00 67 1007.3
20260506060108 9 104 8.0 32.2 0.00 0.00 0.00 67 1007.1
20260506051308 8 39 0.0 24.1 0.00 0.00 0.00 67 1007.3
20260506051008 8 92 22.5 24.1 0.00 0.00 0.00 67 1007.5
20260506050708 8 57 12.9 16.1 0.00 0.00 0.00 67 1007.4
20260506050408 8 89 8.0 14.5 0.00 0.00 0.00 67 1007.5
20260506050108 8 53 16.1 24.1 0.00 0.00 0.00 66 1007.4
20260506044908 8 34 19.3 30.6 0.00 0.00 0.00 66 1007.6
20260506044608 8 62 14.5 37.0 0.00 0.00 0.00 66 1007.6
20260506044308 8 78 9.7 29.0 0.00 0.00 0.00 66 1007.4
20260506044008 8 289 22.5 29.0 0.00 0.00 0.00 66 1007.5
20260506043708 8 140 9.7 25.7 0.00 0.00 0.00 66 1007.5
20260506043408 8 17 8.0 24.1 0.00 0.00 0.00 66 1007.6
20260506043108 8 30 9.7 32.2 0.00 0.00 0.00 65 1007.5
20260506042808 8 60 0.0 38.6 0.00 0.00 0.00 65 1007.6
20260506042508 8 78 17.7 25.7 0.00 0.00 0.00 65 1007.5
20260506042208 8 55 17.7 24.1 0.00 0.00 0.00 65 1007.4
20260506041908 8 83 30.6 38.6 0.00 0.00 0.00 65 1007.6
20260506041608 8 75 30.6 30.6 0.00 0.00 0.00 65 1007.4
20260506041308 8 63 37.0 37.0 0.00 0.00 0.00 65 1007.3
20260506041008 8 7 14.5 27.4 0.00 0.00 0.00 65 1007.4
20260506040708 8 40 9.7 25.7 0.00 0.00 0.00 65 1007.4
20260506040408 8 53 33.8 37.0 0.00 0.00 0.00 65 1007.5
20260506040108 8 344 11.3 20.9 0.00 0.00 0.00 65 1007.4
20260506035808 8 64 0.0 19.3 0.00 0.00 0.00 65 1007.4
20260506035508 8 136 9.7 32.2 0.00 0.00 0.00 65 1007.6
20260506035208 8 85 24.1 24.1 0.00 0.00 0.00 66 1007.5
20260506034908 8 118 6.4 43.5 0.00 0.00 0.00 65 1007.5
20260506034608 8 95 11.3 22.5 0.00 0.00 0.00 65 1007.5
20260506034308 8 107 19.3 19.3 0.00 0.00 0.00 64 1007.5
20260506034008 8 167 16.1 22.5 0.00 0.00 0.00 64 1007.3
20260506033708 8 107 12.9 14.5 0.00 0.00 0.00 64 1007.4
20260506033408 8 72 9.7 22.5 0.00 0.00 0.00 64 1007.6
20260506033108 8 53 8.0 37.0 0.00 0.00 0.00 64 1007.6
20260506032808 8 103 0.0 19.3 0.00 0.00 0.00 63 1007.5
20260506032508 8 63 6.4 40.2 0.00 0.00 0.00 63 1007.6
20260506032208 8 75 22.5 37.0 0.00 0.00 0.00 63 1007.5
20260506031908 8 76 27.4 27.4 0.00 0.00 0.00 64 1007.7
20260506031608 8 77 22.5 30.6 0.00 0.00 0.00 63 1007.7
20260506031308 8 109 24.1 46.7 0.00 0.00 0.00 64 1007.6
20260506031008 8 330 0.0 25.7 0.00 0.00 0.00 65 1007.7
20260506030708 8 193 16.1 19.3 0.00 0.00 0.00 64 1007.6
20260506030408 8 62 8.0 25.7 0.00 0.00 0.00 65 1007.6
20260506030108 8 249 11.3 22.5 0.00 0.00 0.00 66 1007.7
20260506025808 8 93 24.1 29.0 0.00 0.00 0.00 65 1007.7
20260506025508 8 22 9.7 29.0 0.00 0.00 0.00 66 1007.6
20260506025208 7 70 27.4 27.4 0.00 0.00 0.00 66 1007.6
20260506024908 7 266 0.0 22.5 0.00 0.00 0.00 67 1007.7
20260506024608 7 75 16.1 30.6 0.00 0.00 0.00 67 1007.7
20260506024308 7 95 0.0 20.9 0.00 0.00 0.00 68 1007.7
20260506024008 7 31 11.3 22.5 0.00 0.00 0.00 70 1007.7
20260506023708 7 94 8.0 17.7 0.00 0.00 0.00 69 1007.7
20260506023408 7 358 12.9 25.7 0.00 0.00 0.00 69 1007.8
20260506023108 7 15 12.9 20.9 0.00 0.00 0.00 70 1007.7
20260506022808 7 83 11.3 19.3 0.00 0.00 0.00 70 1007.7
20260506022508 7 68 17.7 24.1 0.00 0.00 0.00 71 1007.9
20260506022208 6 295 0.0 25.7 0.00 0.00 0.00 72 1007.7
20260506021908 6 80 8.0 25.7 0.00 0.00 0.00 73 1007.6
20260506021608 6 108 8.0 17.7 0.00 0.00 0.00 75 1007.9
20260506021308 6 68 9.7 20.9 0.00 0.00 0.00 77 1008.1
20260506021008 5 36 0.0 12.9 0.00 0.00 0.00 82 1008.1
20260506020708 5 62 6.4 16.1 0.00 0.00 0.00 87 1008.1
20260506020408 4 35 0.0 9.7 0.00 0.00 0.00 92 1008.0
20260506020108 3 351 0.0 14.5 0.00 0.00 0.00 94 1008.1
20260506015808 3 103 12.9 12.9 0.00 0.00 0.00 94 1008.0
20260506015508 3 106 0.0 12.9 0.00 0.00 0.00 94 1008.1
20260506015208 3 38 9.7 14.5 0.00 0.00 0.00 94 1008.3
20260506014908 3 81 8.0 12.9 0.00 0.00 0.00 94 1008.1
20260506014608 3 63 0.0 9.7 0.00 0.00 0.00 94 1008.2
20260506014308 3 119 0.0 16.1 0.00 0.00 0.00 94 1008.1
20260506014008 3 115 8.0 14.5 0.00 0.00 0.00 94 1008.1
20260506013708 3 48 6.4 9.7 0.00 0.00 0.00 94 1008.1
20260506013408 3 50 0.0 9.7 0.00 0.00 0.00 94 1008.4
20260506013108 3 43 6.4 9.7 0.00 0.00 0.00 94 1008.1
20260506012808 3 103 8.0 8.0 0.00 0.00 0.00 94 1008.4
20260506012508 3 73 0.0 12.9 0.00 0.00 0.00 94 1008.4
20260506012208 3 87 6.4 9.7 0.00 0.00 0.00 93 1008.5
20260506011908 3 72 6.4 9.7 0.00 0.00 0.00 93 1008.4
20260506011608 3 49 0.0 9.7 0.00 0.00 0.00 93 1008.2
20260506011308 3 62 9.7 9.7 0.00 0.00 0.00 93 1008.3
20260506011008 3 49 0.0 8.0 0.00 0.00 0.00 93 1008.3
20260506010708 3 71 8.0 9.7 0.00 0.00 0.00 93 1008.4
20260506010408 3 87 6.4 9.7 0.00 0.00 0.00 93 1008.3
20260506010108 3 99 0.0 14.5 0.00 0.00 0.00 93 1008.2
20260506005808 3 50 0.0 9.7 0.00 0.00 0.00 93 1008.1
20260506005508 3 49 0.0 9.7 0.00 0.00 0.00 92 1008.1
20260506005208 3 88 6.4 9.7 0.00 0.00 0.00 92 1008.0
20260506004908 3 55 0.0 8.0 0.00 0.00 0.00 92 1008.1
20260506004608 3 54 9.7 9.7 0.00 0.00 0.00 92 1008.2
20260506004308 3 50 0.0 11.3 0.00 0.00 0.00 92 1008.3
20260506004008 3 34 0.0 9.7 0.00 0.00 0.00 92 1008.4
20260506003708 3 22 0.0 9.7 0.00 0.00 0.00 91 1008.2
20260506003408 3 42 0.0 9.7 0.00 0.00 0.00 91 1008.4
20260506003108 3 43 6.4 9.7 0.00 0.00 0.00 91 1008.6
20260506002808 3 42 9.7 9.7 0.00 0.00 0.00 91 1008.5
20260506002508 3 93 6.4 9.7 0.00 0.00 0.00 91 1008.6
20260506002208 3 60 8.0 9.7 0.00 0.00 0.00 91 1008.6
20260506001908 3 101 9.7 9.7 0.00 0.00 0.00 90 1008.6
20260506001608 3 50 0.0 9.7 0.00 0.00 0.00 90 1008.7
20260506001308 3 71 6.4 9.7 0.00 0.00 0.00 90 1008.6
20260506001008 3 45 0.0 9.7 0.00 0.00 0.00 90 1008.8
20260506000708 3 47 0.0 9.7 0.00 0.00 0.00 90 1008.6
20260506000408 4 49 0.0 9.7 0.00 0.00 0.00 90 1008.6
20260506000108 4 76 8.0 9.7 0.00 0.00 0.00 90 1008.8
20260505235808 4 89 6.4 9.7 0.00 0.00 0.00 89 1008.6
20260505235508 4 84 9.7 9.7 0.00 0.00 0.00 89 1008.6
20260505235208 4 57 0.0 8.0 0.00 0.00 0.00 88 1008.7
20260505234908 4 38 0.0 8.0 0.00 0.00 0.00 88 1008.7
20260505234608 4 72 0.0 9.7 0.00 0.00 0.00 87 1008.7
20260505234308 4 70 6.4 9.7 0.00 0.00 0.00 87 1008.8
20260505234008 4 99 6.4 9.7 0.00 0.00 0.00 88 1008.9
20260505233708 4 83 8.0 11.3 0.00 0.00 0.00 87 1008.8
20260505233408 4 87 9.7 11.3 0.00 0.00 0.00 87 1008.8
20260505233108 4 80 8.0 9.7 0.00 0.00 0.00 86 1008.6
20260505232808 4 80 8.0 9.7 0.00 0.00 0.00 85 1008.8
20260505232508 5 85 9.7 9.7 0.00 0.00 0.00 85 1008.6
20260505232208 5 93 0.0 9.7 0.00 0.00 0.00 85 1008.9
20260505231908 5 65 9.7 11.3 0.00 0.00 0.00 85 1008.7
20260505231608 5 86 8.0 11.3 0.00 0.00 0.00 86 1008.8
20260505231308 5 89 6.4 9.7 0.00 0.00 0.00 86 1008.8
20260505231008 5 84 9.7 9.7 0.00 0.00 0.00 86 1008.7
20260505230708 5 130 0.0 9.7 0.00 0.00 0.00 86 1008.9
20260505230408 5 111 0.0 9.7 0.00 0.00 0.00 86 1008.8
20260505230108 5 76 8.0 9.7 0.00 0.00 0.00 86 1008.9
20260505225808 5 54 0.0 8.0 0.00 0.00 0.00 86 1008.8
20260505225508 5 77 0.0 9.7 0.00 0.00 0.00 86 1008.9
20260505225208 5 63 6.4 9.7 0.00 0.00 0.00 87 1009.2
20260505224908 5 80 6.4 9.7 0.00 0.00 0.00 87 1009.0
20260505224608 5 114 9.7 9.7 0.00 0.00 0.00 87 1009.0
20260505224308 6 89 0.0 11.3 0.00 0.00 0.00 86 1009.0
20260505224008 6 76 11.3 12.9 0.00 0.00 0.00 86 1009.1
20260505223708 6 113 0.0 9.7 0.00 0.00 0.00 85 1009.1
20260505223408 6 81 11.3 14.5 0.00 0.00 0.00 86 1009.2
20260505223108 6 111 0.0 8.0 0.00 0.00 0.00 86 1009.0
20260505222808 6 131 0.0 11.3 0.00 0.00 0.00 85 1009.1
20260505222508 6 89 6.4 9.7 0.00 0.00 0.00 85 1009.2
20260505222208 6 98 6.4 9.7 0.00 0.00 0.00 85 1009.1
20260505221908 6 63 0.0 12.9 0.00 0.00 0.00 85 1009.3
20260505221608 6 85 11.3 11.3 0.00 0.00 0.00 85 1009.3
20260505221308 6 127 6.4 9.7 0.00 0.00 0.00 84 1009.0
20260505221008 6 126 6.4 9.7 0.00 0.00 0.00 84 1009.1
20260505220708 6 110 8.0 12.9 0.00 0.00 0.00 83 1008.9
20260505220408 6 99 8.0 17.7 0.00 0.00 0.00 83 1009.2
20260505220108 6 76 9.7 16.1 0.00 0.00 0.00 83 1009.0
20260505215808 7 84 6.4 9.7 0.00 0.00 0.18 83 1009.3
20260505215508 7 84 0.0 9.7 0.00 0.00 0.18 84 1009.2
20260505215208 7 72 0.0 12.9 0.00 0.00 0.18 84 1009.2
20260505214908 7 54 8.0 12.9 0.00 0.00 0.18 84 1009.2
20260505214608 7 59 8.0 9.7 0.00 0.00 0.18 84 1009.1
20260505214308 7 88 9.7 12.9 0.00 0.00 0.18 84 1009.3
20260505214008 7 87 8.0 11.3 0.00 0.00 0.18 84 1009.4
20260505213708 7 44 0.0 12.9 0.00 0.00 0.18 84 1009.2
20260505213408 7 97 0.0 9.7 0.00 0.00 0.18 84 1009.2
20260505213108 7 50 0.0 12.9 0.00 0.00 0.18 85 1009.3
20260505212808 7 107 0.0 8.0 0.00 0.00 0.18 86 1009.2
20260505212508 7 65 9.7 17.7 0.00 0.00 0.18 87 1009.5
20260505212208 7 52 8.0 9.7 0.00 0.00 0.18 87 1009.5
20260505211908 7 94 0.0 9.7 0.00 0.00 0.18 86 1009.6
20260505211608 7 55 0.0 8.0 0.00 0.00 0.18 86 1009.4
20260505211308 7 62 0.0 8.0 0.00 0.00 0.18 86 1009.3
20260505211008 7 89 6.4 9.7 0.00 0.00 0.18 86 1009.4
20260505210708 7 85 11.3 11.3 0.00 0.00 0.18 85 1009.5
20260505210408 7 91 8.0 11.3 0.00 0.00 0.18 85 1009.4
20260505210108 7 101 8.0 9.7 0.00 0.00 0.18 85 1009.5
20260505205808 8 88 9.7 11.3 0.00 0.00 0.18 84 1009.4
20260505205508 8 89 8.0 11.3 0.00 0.00 0.18 84 1009.3
20260505205208 8 89 11.3 11.3 0.00 0.00 0.18 84 1009.5
20260505204908 8 76 9.7 11.3 0.00 0.00 0.18 84 1009.4
20260505204608 8 88 14.5 14.5 0.00 0.00 0.18 83 1009.3
20260505204308 8 40 0.0 12.9 0.00 0.00 0.18 83 1009.4
20260505204008 8 84 0.0 11.3 0.00 0.00 0.18 83 1009.3
20260505203708 8 44 0.0 12.9 0.00 0.00 0.18 83 1009.3
20260505203408 8 75 8.0 14.5 0.00 0.00 0.18 83 1009.3
20260505203108 8 57 8.0 12.9 0.00 0.00 0.18 83 1009.2
20260505202808 8 13 9.7 19.3 0.00 0.00 0.18 84 1009.2
20260505202508 8 86 12.9 14.5 0.00 0.00 0.18 84 1009.3
20260505202208 8 101 17.7 17.7 0.00 0.00 0.18 84 1009.2
20260505201908 8 111 14.5 24.1 0.00 0.00 0.18 84 1009.0
20260505201608 8 75 9.7 16.1 0.00 0.00 0.18 84 1009.4
20260505201308 8 104 17.7 17.7 0.00 0.00 0.18 84 1009.2
20260505201008 8 67 0.0 14.5 0.00 0.00 0.18 84 1009.1
20260505200708 8 72 8.0 29.0 0.00 0.00 0.18 84 1009.2
20260505200408 8 58 8.0 27.4 0.00 0.00 0.18 84 1009.1
20260505200108 8 283 0.0 33.8 0.00 0.00 0.18 84 1009.2
20260505195808 8 20 6.4 14.5 0.00 0.00 0.18 84 1009.1
20260505195508 8 12 0.0 24.1 0.00 0.00 0.18 84 1009.0
20260505195208 8 339 0.0 17.7 0.00 0.00 0.18 84 1009.3
20260505194908 9 70 9.7 25.7 0.00 0.00 0.18 84 1009.2
20260505194608 9 12 16.1 20.9 0.00 0.00 0.18 84 1009.2
20260505194308 9 17 9.7 17.7 0.00 0.00 0.18 84 1009.2
20260505194008 9 278 16.1 19.3 0.00 0.00 0.18 84 1009.1
20260505193708 9 41 14.5 14.5 0.00 0.00 0.18 83 1009.3
20260505193408 9 11 9.7 17.7 0.00 0.00 0.18 83 1009.3
20260505193108 9 15 16.1 16.1 0.00 0.00 0.18 82 1009.2
20260505192808 9 81 8.0 19.3 0.00 0.00 0.18 81 1009.2
20260505192508 9 55 8.0 16.1 0.00 0.00 0.18 81 1009.3
20260505192208 9 34 0.0 22.5 0.00 0.00 0.18 80 1009.3
20260505191908 10 349 16.1 17.7 0.00 0.00 0.18 79 1009.5
20260505191608 10 25 0.0 14.5 0.00 0.00 0.18 79 1009.3
20260505191308 10 108 0.0 19.3 0.00 0.00 0.18 78 1009.3
20260505191008 10 39 9.7 27.4 0.00 0.00 0.18 78 1009.1
20260505190708 10 86 8.0 17.7 0.00 0.00 0.18 77 1009.2
20260505190408 10 14 14.5 16.1 0.00 0.00 0.18 76 1009.0
20260505190108 10 310 0.0 17.7 0.00 0.00 0.18 75 1009.1
20260505185808 10 34 6.4 17.7 0.00 0.00 0.18 74 1009.3
20260505185508 10 5 8.0 12.9 0.00 0.00 0.18 73 1009.2
20260505185208 10 49 9.7 16.1 0.00 0.00 0.18 72 1008.9
20260505184908 10 61 16.1 17.7 0.00 0.00 0.18 71 1009.3
20260505184608 11 75 6.4 14.5 0.00 0.00 0.18 70 1009.1
20260505184308 11 91 8.0 17.7 0.00 0.00 0.18 70 1009.0
20260505184008 11 117 9.7 9.7 0.00 0.00 0.18 69 1008.9
20260505183708 11 118 8.0 19.3 0.00 0.00 0.18 68 1009.0
20260505183408 11 20 14.5 17.7 0.00 0.00 0.18 67 1008.9
20260505183108 11 311 0.0 12.9 0.00 0.00 0.18 67 1008.9
20260505182808 11 116 0.0 20.9 0.00 0.00 0.18 66 1009.0
20260505182508 12 312 6.4 24.1 0.00 0.00 0.18 65 1008.9
20260505182208 12 88 8.0 24.1 0.00 0.00 0.18 65 1008.9
20260505181908 12 25 9.7 20.9 0.00 0.00 0.18 64 1008.9
20260505181608 12 325 30.6 30.6 0.00 0.00 0.18 64 1009.2
20260505181308 12 3 17.7 22.5 0.00 0.00 0.18 63 1009.1
20260505181008 12 47 16.1 22.5 0.00 0.00 0.18 65 1009.2
20260505180708 12 31 9.7 22.5 0.00 0.00 0.18 64 1009.0
20260505180408 12 5 16.1 24.1 0.00 0.00 0.18 65 1009.1
20260505175808 12 9 24.1 29.0 0.00 0.00 0.18 64 1009.2
20260505175508 12 48 11.3 27.4 0.00 0.00 0.18 63 1009.1
20260505175208 13 360 9.7 32.2 0.00 0.00 0.18 62 1009.1
20260505174908 13 85 8.0 30.6 0.00 0.00 0.18 62 1008.9
20260505174608 13 10 24.1 37.0 0.00 0.00 0.18 62 1009.0
20260505174308 13 10 9.7 35.4 0.00 0.00 0.18 61 1009.0
20260505174008 13 88 6.4 20.9 0.00 0.00 0.18 61 1009.1
20260505173708 13 15 17.7 30.6 0.00 0.00 0.18 60 1009.0
20260505173408 13 60 9.7 41.8 0.00 0.00 0.18 59 1009.0
20260505173108 13 8 8.0 41.8 0.00 0.00 0.18 59 1009.2
20260505172808 13 118 12.9 30.6 0.00 0.00 0.18 59 1009.1
20260505172508 13 43 16.1 40.2 0.00 0.00 0.18 58 1009.2
20260505172208 13 347 14.5 37.0 0.00 0.00 0.18 59 1009.0
20260505171908 13 78 16.1 17.7 0.00 0.00 0.18 60 1009.2
20260505171608 13 39 12.9 30.6 0.00 0.00 0.18 61 1009.2
20260505171308 13 63 17.7 27.4 0.00 0.00 0.18 60 1009.2
20260505171008 13 40 9.7 37.0 0.00 0.00 0.18 60 1009.2
20260505170708 13 76 12.9 19.3 0.00 0.00 0.18 59 1009.3
20260505170408 13 80 29.0 38.6 0.00 0.00 0.18 58 1009.1
20260505170108 13 4 24.1 38.6 0.00 0.00 0.18 57 1009.2
20260505165808 13 57 30.6 32.2 0.00 0.00 0.18 58 1009.2
20260505165508 14 60 25.7 27.4 0.00 0.00 0.18 58 1009.1
20260505165208 13 326 11.3 25.7 0.00 0.00 0.18 57 1009.1
20260505164908 13 41 9.7 24.1 0.00 0.00 0.18 58 1009.3
20260505164608 13 118 17.7 27.4 0.00 0.00 0.18 57 1009.2
20260505164308 14 119 19.3 30.6 0.00 0.00 0.18 57 1009.3
20260505164008 14 63 32.2 40.2 0.00 0.00 0.18 56 1009.2
20260505163708 14 292 20.9 33.8 0.00 0.00 0.18 57 1009.2
20260505163408 14 120 6.4 33.8 0.00 0.00 0.18 56 1009.1
20260505163108 14 225 9.7 43.5 0.00 0.00 0.18 57 1009.3
20260505162808 14 21 24.1 30.6 0.00 0.00 0.18 57 1009.2
20260505162508 14 334 11.3 22.5 0.00 0.00 0.18 58 1009.2
20260505162208 14 36 0.0 24.1 0.00 0.00 0.18 58 1009.3
20260505161908 14 115 14.5 38.6 0.00 0.00 0.18 57 1009.3
20260505161608 14 43 14.5 24.1 0.00 0.00 0.18 58 1009.2
20260505161308 14 32 12.9 27.4 0.00 0.00 0.18 60 1009.3
20260505161008 14 18 17.7 41.8 0.00 0.00 0.18 59 1009.2
20260505160708 14 116 24.1 49.9 0.00 0.00 0.18 57 1009.4
20260505160408 14 9 14.5 25.7 0.00 0.00 0.18 58 1009.2
20260505160108 14 95 27.4 40.2 0.00 0.00 0.18 57 1009.3
20260505153108 14 45 19.3 25.7 0.00 0.00 0.18 62 1009.2
20260505152808 14 61 37.0 37.0 0.00 0.00 0.18 68 1009.2
20260505152508 15 79 0.0 32.2 0.00 0.00 0.18 67 1009.2
20260505152208 15 136 14.5 33.8 0.00 0.00 0.18 67 1009.1
20260505151908 15 94 24.1 35.4 0.00 0.00 0.18 66 1009.2
20260505151608 15 42 8.0 30.6 0.00 0.00 0.18 64 1009.2
20260505151308 15 104 32.2 43.5 0.00 0.00 0.18 63 1009.2
20260505151008 14 104 19.3 25.7 0.00 0.00 0.18 65 1009.3
20260505150708 13 127 6.4 27.4 0.00 0.00 0.18 69 1009.2
20260505150408 13 60 20.9 43.5 0.00 0.00 0.18 68 1009.3